Starlink 30518

operational
NORAD ID: 58029 Int'l Des: 2023-156 Owner: SPXS Country: US Constellation: starlink
LEOCIRCULAR

关于 Starlink 30518

正在加载描述...

实时位置

正在加载3D地球...

即将过境

高度历史

Altitude vs Time

uPlot chart will show altitude changes over time

两行轨道根数

1 58029U 23156B 25351.62963654 -.00003243 00000-0 -97422-4 0 9990
2 58029 53.1611 99.4451 0001105 77.7883 282.3241 15.30198055123759
Epoch: Dec 17, 2025 • Age: 7 hours

当前状态

高度 494.1 km
速度 7.62 km/s
星下点 -52.11°S, 73.25°W
发射日期 Oct 9, 2023
运行时间 2.1 years
类型 internet

技术详情

分类 Payload
质量 730.00 kg
干质量 700.00 kg
总质量 730.00 kg
长度 0.30 m
直径 4.10 m
跨度 29.00 m
形状 Box + pan
制造商 SPXS
平台类型 Starlink V2M
阶段状态 In Orbit
所有者/国家 SPXS/US

大型星座

Loading constellations...